User: anonymous   Login
Location: Unspecified
(0.0000°N, 0.0000°E)
Time: 08:04:10
(UTC+00:00)
Language:

Transit 4B - Orbit

View from above orbital plane
View from above orbital plane
View from above satellite
View from above satellite

Ground track
Ground track

The orbit data is extracted from the following two-line orbital elements,

1   202U 61031A   19345.50751191 +.00000022 +00000-0 -43692-6 0  9991
2   202 032.4394 038.5154 0101021 143.0337 217.7296 13.63531535895981
Epoch (UTC): 11 December 2019 12:10:49
Eccentricity: 0.0101021
inclination: 32.4394°
perigee height: 948 km
apogee height: 1097 km
right ascension of ascending node: 38.5154°
argument of perigee: 143.0337°
revolutions per day: 13.63531535
mean anomaly at epoch: 217.7296°
orbit number at epoch: 89598

The dashed part of the orbit path shows where the satellite is in the earth's shadow,  

DLR